Location: Fauquembergues
(50.6005°N, 2.0987°E)
Time: 08:21:56
(UTC+00:00)

Cosmos 1441 Rocket - Pass Details

Date: 14 July 2020
Orbit: 495 x 541 km, 81.1° (Epoch: 14 August)

Event Time Altitude Azimuth Distance (km) Brightness Sun altitude
Exits shadow 00:10:20 42° 178° (S) 778 3.6 -17.7°
Maximum altitude 00:11:35 77° 101° (E) 557 3.2 -17.7°
Drops below altitude 10° 00:15:32 10° 15° (NNE) 1,797 7.2 -17.7°
Sets 00:17:41 0° 14° (NNE) 2,685 8.5 -17.6°
